SNUSat 2 (43782 NORAD) Tracking and Keplerian Element Data

This shows tracking and keplerian element data for the satellite.

Feedback or suggestion? Click here.




ElementValue
Catalog43782
NameSNUSat 2
Epoch Orbit663
Epoch Day17.19549219
Epoch Year2019
RAAN90.9064
Inclination97.7632
Eccentricity0.0014227
Argument of Perigee108.7015
Mean Anonmoly251.5751
Mean Motion14.9495165
Decay Rate1.65E-06
L11 43782U 18099AA 19017.19549219 .00000165 00000-0 20406-4 0 9997
L22 43782 97.7632 90.9064 0014227 108.7015 251.5751 14.94951650 6631

Live tracking and technical data element details for SNUSat 2 (NORAD 43782). SNUSat 2 can be tracked NOW for your location showing map with azimuth and elevation plus other details from your city location.

Track the satellite on the map from your city or location and see movement details for azimuth, elevation, latitude, longitude, range, height, and movement on the map or in text.







IsCatalogInMostPopularTable: catalog: 43782, numindb: 17
Update: records affected: 1



GetName: 43782 SNUSat 2

Hit Count: updated at: Wed, 23 Jan 2019 03:56:26 GMT